Regional Weather Roundup
Issued by NWS

Home | Current Version | Previous Version | Text Only | Print | Product List | Glossary On
Versions: 1 2 3 4 5 6 7 8 9 10 11 12 13 14 15 16 17 18 19 20 21 22 23 24 25 26 27 28 29 30 31 32 33 34 35 36 37 38 39 40 41 42 43 44 45 46 47 48 49 50
000
ASUS43 KFSD 200710
RWRSD

WEATHER ROUNDUP FOR SOUTH DAKOTA
NATIONAL WEATHER SERVICE SIOUX FALLS SD
100 AM CST SAT DEC 20 2014

NOTE: "FAIR" INDICATES FEW OR NO CLOUDS BELOW 12,000 FEET WITH NO
SIGNIFICANT WEATHER AND/OR OBSTRUCTIONS TO VISIBILITY.


SDZ001>005-009-010-012>017-200800-
NORTHWEST AND NORTH CENTRAL SOUTH DAKOTA

CITY           SKY/WX    TMP DP  RH WIND       PRES   REMARKS
BUFFALO          N/A     29  20  69 W3        29.82F
FAITH            N/A     29  21  72 S7        29.91F WCI  22
MOBRIDGE       CLEAR     20  18  92 SE6       29.93S WCI  12
$$

SDZ012>016-024>037-041>051-057-063-072>074-200800-
SOUTHWEST AND SOUTH CENTRAL SOUTH DAKOTA

CITY           SKY/WX    TMP DP  RH WIND       PRES   REMARKS
RAPID CTY ARPT CLEAR     24  16  71 CALM      29.90F
PIERRE         FOG       16  14  92 CALM      29.96S VSB 3/4
CUSTER         CLEAR     27  15  61 W3        29.89S
ELLSWORTH AFB  CLEAR     23  17  77 W8        29.89F WCI  14
PHILIP         CLEAR     19  15  84 CALM      29.94F
PINE RIDGE     CLEAR     17  12  80 CALM      29.95F
SPEARFISH      FAIR      32  18  55 S6        29.90S WCI  26
WINNER         FAIR      33  21  61 SW7       29.97F WCI  27
$$

SDZ004>011-016>023-039-040-200800-
NORTHEAST SOUTH DAKOTA

CITY           SKY/WX    TMP DP  RH WIND       PRES   REMARKS
ABERDEEN       CLOUDY    28  25  88 S12       30.01S FOG     WCI  18
WATERTOWN      CLOUDY    29  27  92 S10       30.00F FOG     WCI  20
SISSETON         N/A     30  28  92 SW9       30.02R WCI  22
$$

SDZ017-020-022-023-036>040-048>070-200800-
SOUTHEAST SOUTH DAKOTA

CITY           SKY/WX    TMP DP  RH WIND       PRES   REMARKS
SIOUX FALLS    CLOUDY    31  28  89 S8        30.05F WCI  23
HURON          CLOUDY    27  26  96 S10       30.02S FOG     WCI  17
CHAMBERLAIN    FOG       13  11  91 CALM      29.99S VSB 1
MITCHELL       CLOUDY    29  28  96 S10       30.05S FOG     WCI  20
YANKTON        CLOUDY    34  28  80 S6        30.06F WCI  29
$$

ABBREVIATIONS USED IN REMARKS
   TC - TEMPERATURE IN CELSIUS
  WCI - WIND CHILL INDEX
   HX - HEAT INDEX
  VSB - VISIBILITY



USA.gov is the U.S. government's official web portal to all federal, state and local government web resources and services.